Location: Poughquag
(41.6090°N, 73.6820°W)
Time: 01:39:55
(UTC-04:00)

S-56A Canister/Altair - Pass Details

Date: 01 June 2020
Orbit: 633 x 2499 km, 38.9° (Epoch: 06 July)

Event Time Altitude Azimuth Distance (km) Brightness Sun altitude
Rises 06:40:12 0° 258° (WSW) 3,461 10.2 12.3°
Reaches altitude 10° 06:42:22 10° 256° (WSW) 2,689 9.7 12.7°
Maximum altitude 06:48:50 73° 173° (S) 1,310 8.9 13.8°
Drops below altitude 10° 06:58:54 10° 91° (E) 4,061 13.0 15.6°
Sets 07:02:53 0° 90° (E) 5,342 13.4 16.3°
